EHI
64 58 70 82 73 62 62 59 48 40 34 21 9 4 6 10 14 25 50 82 98 100 99 97 92 82 66 42 20 6 1 0 0 0 0 0 0 0 0 0 0 0 0
78 78 84 87 77 63 60 59 53 48 39 24 11 6 7 13 23 38 62 86 98 99 98 97 93 87 77 60 36 17 6 2 1 1 0 0 0 0 0 0 0 0 0
91 92 93 90 81 70 65 62 58 53 42 27 16 8 8 17 32 50 72 90 97 97 97 96 92 88 84 76 58 38 22 10 4 2 1 0 0 0 0 0 0 0 0
93 93 92 90 86 81 75 68 63 57 48 34 22 12 8 14 25 40 60 78 87 91 93 93 91 86 82 79 71 61 49 28 9 1 0 0 0 0 0 0 0 0 0
94 94 93 92 90 87 82 74 69 66 57 42 24 12 7 6 11 18 31 47 62 73 79 84 89 88 83 79 74 73 69 49 20 4 0 0 0 0 0 0 0 0 0
96 95 94 93 92 89 85 81 78 74 65 47 24 11 5 3 3 7 14 21 30 41 52 63 78 86 81 72 68 71 72 61 36 13 2 0 0 0 0 0 0 0 0
96 94 92 92 91 88 85 84 82 76 65 48 27 11 4 1 1 7 17 20 16 18 25 37 56 73 74 60 50 52 59 59 45 23 7 2 1 0 0 0 0 0 0
96 93 91 90 87 82 79 79 76 68 58 45 28 12 3 0 0 6 18 26 25 22 18 18 31 52 64 57 38 29 36 43 41 28 14 6 2 1 0 0 0 0 0
96 93 89 86 80 72 69 66 61 54 46 36 22 9 3 1 0 2 10 20 29 29 19 11 15 29 45 51 38 19 15 22 26 24 16 8 3 1 0 0 0 0 0
95 91 85 80 73 66 59 54 47 42 34 23 12 4 2 1 0 0 3 9 18 19 13 7 7 13 24 32 28 14 6 7 11 13 12 8 4 1 0 0 0 0 0
92 87 80 75 70 63 55 47 40 32 22 12 4 1 1 1 0 0 0 2 5 6 5 3 2 5 10 13 11 6 2 1 2 4 5 5 5 3 1 0 0 0 0
86 80 72 67 62 55 46 37 30 22 12 5 1 1 0 0 0 0 0 0 0 1 1 0 0 1 2 3 2 1 1 0 0 0 1 2 3 3 2 1 1 0 1
75 67 58 53 47 40 31 23 19 13 7 3 1 0 0 1 1 0 0 0 0 0 0 0 0 0 0 0 0 0 0 0 0 0 0 0 1 1 2 2 1 1 1
57 51 43 36 30 22 17 16 15 10 7 4 2 0 1 2 1 0 0 0 0 0 0 0 0 0 0 0 0 0 0 0 0 0 0 0 0 0 1 1 1 0 1
36 32 27 22 16 11 10 12 12 10 7 5 2 1 1 2 1 0 0 0 0 0 0 0 0 0 0 0 0 0 0 0 0 0 0 0 0 0 0 0 0 0 0
20 16 13 11 8 5 5 7 8 7 4 2 1 0 1 1 0 0 0 0 0 0 0 0 0 0 0 0 0 0 0 0 0 0 0 0 0 0 0 0 0 0 0
10 8 6 5 3 2 2 3 3 2 1 0 0 0 0 0 0 0 0 0 0 0 0 0 0 0 0 0 0 0 0 0 0 0 0 0 0 0 0 0 0 0 0
5 4 2 1 0 0 0 1 1 1 0 0 0 0 0 0 0 0 0 0 0 0 0 0 0 0 0 0 0 0 0 0 0 0 0 0 0 0 0 0 0 0 0
2 1 0 0 0 0 0 0 0 0 0 0 0 0 0 0 0 0 0 0 0 0 0 0 0 0 0 0 0 0 0 0 0 0 0 0 0 0 0 0 0 0 0
1 0 0 0 0 0 0 0 0 0 0 0 0 0 0 0 0 0 0 0 0 0 0 0 0 0 0 0 0 0 0 0 0 0 0 0 0 0 0 0 0 0 0
0 0 0 0 0 0 0 0 0 0 0 0 0 0 0 0 0 0 0 0 0 0 0 0 0 0 0 0 0 0 0 0 0 0 0 0 0 0 0 0 0 0 0
0 0 0 0 0 0 0 0 0 0 0 0 0 0 0 0 0 0 0 0 0 0 0 0 0 0 0 0 0 0 0 0 0 0 0 0 0 0 0 0 0 0 0
0 0 0 0 0 0 0 0 0 0 0 0 0 0 0 0 0 0 0 0 0 0 0 0 0 0 0 0 0 0 0 0 0 0 0 0 0 0 0 0 0 0 0
0 0 0 0 0 0 0 0 0 0 0 0 0 0 0 0 0 0 0 0 0 0 0 0 0 0 0 0 0 0 0 0 0 0 0 0 0 0 0 0 0 0 0
0 0 0 0 0 0 0 0 0 0 0 0 0 0 0 0 0 0 0 0 0 0 0 0 0 0 0 0 0 0 0 0 0 0 0 0 0 0 0 0 0 0 0
0 0 0 0 0 0 0 0 0 0 0 0 0 0 0 0 0 0 0 0 0 0 0 0 0 0 0 0 0 0 0 0 0 0 0 0 0 0 0 0 0 0 0
Wind_Speed
6 6 3 2 3 3 3 5 4 4 4 5 6 7 7 7 7 6 4 13 16 17 17 17 16 17 17 16 16 15 15 15 14 14 15 15 16 15 15 16 15 14 14
5 4 4 3 3 3 2 1 2 2 3 4 6 6 7 7 7 8 6 10 18 19 19 18 19 19 18 17 16 15 15 14 14 13 14 14 14 14 15 15 15 14 14
5 4 3 3 3 2 2 1 3 2 4 5 6 7 7 8 8 8 7 5 8 16 19 20 20 19 19 19 18 17 15 14 14 14 14 14 14 13 13 14 14 13 14
6 5 4 4 3 2 2 2 2 2 3 4 5 6 7 7 8 8 7 7 7 8 14 22 21 20 20 20 20 18 16 15 15 14 14 14 14 13 13 13 13 13 13
7 5 4 3 3 2 2 4 2 2 3 4 5 6 7 8 8 10 8 8 7 7 6 12 22 22 21 21 20 19 18 17 16 15 15 15 14 14 13 13 13 13 13
6 5 4 4 4 3 3 3 3 3 3 4 6 7 7 9 8 8 9 8 6 8 8 9 10 15 21 20 20 20 19 18 17 16 16 16 15 14 13 13 13 13 13
6 5 5 4 4 4 4 4 3 4 3 3 4 5 7 10 11 9 8 7 7 7 6 6 5 7 9 19 20 20 20 19 18 17 17 16 16 15 14 14 14 14 14
6 6 6 5 5 4 5 5 4 3 3 3 2 3 4 6 7 6 4 4 5 4 4 5 4 5 5 6 11 18 19 19 19 18 17 16 16 15 15 15 15 15 15
7 6 6 6 5 5 5 6 5 5 4 3 3 3 3 3 5 5 5 2 2 1 2 3 3 3 4 3 5 13 17 17 17 17 17 16 16 15 15 15 15 15 15
7 7 7 7 6 5 5 6 6 4 4 4 3 4 5 5 4 4 4 4 4 4 3 4 4 3 2 1 2 6 12 13 13 14 14 14 14 14 13 14 14 15 16
7 7 6 5 5 5 6 5 4 4 4 4 3 3 4 5 5 4 5 4 4 3 2 3 3 3 3 2 1 2 4 6 7 9 10 11 11 11 12 12 13 14 15
4 7 7 6 6 5 5 5 4 4 4 3 3 3 3 3 2 2 4 4 4 3 2 1 2 2 2 2 3 4 1 3 5 6 7 8 9 10 11 11 12 13 14
4 6 7 6 5 5 4 4 4 4 4 4 4 3 3 3 2 2 2 3 4 3 1 1 1 2 2 2 2 2 1 4 5 5 6 7 7 8 8 9 11 12 13
3 4 5 6 6 6 5 4 3 4 4 4 4 2 2 2 1 1 1 2 3 3 1 1 1 1 1 1 1 2 2 4 5 5 5 5 5 6 7 8 9 10 12
2 2 2 4 5 5 4 3 3 3 2 2 1 0 1 1 1 2 2 2 2 3 3 1 1 1 1 1 1 2 1 2 5 5 4 4 4 5 6 7 9 10 11
2 2 1 1 2 3 3 2 1 2 2 2 1 1 1 2 2 2 2 2 2 2 2 3 2 3 3 4 2 3 2 2 5 5 4 4 4 4 5 7 9 10 12
4 4 3 2 1 1 1 1 1 2 3 3 3 4 4 4 3 3 3 3 2 2 2 3 2 3 4 4 3 3 2 2 2 6 5 5 4 4 5 7 9 10 12
4 4 4 3 2 1 1 1 3 4 5 6 5 5 5 5 5 4 4 4 3 2 2 3 2 3 4 4 4 4 3 3 1 5 6 5 5 5 5 7 9 10 11
4 4 3 3 3 2 3 4 5 6 7 7 7 7 7 6 6 5 5 5 4 5 3 2 3 3 3 4 4 4 4 3 3 1 5 5 5 5 6 6 8 9 10
3 3 2 2 3 4 5 5 7 7 7 7 7 7 7 6 6 6 6 6 6 5 4 4 4 4 4 6 5 5 4 3 3 4 3 1 3 5 5 5 6 8 9
2 1 1 3 3 4 4 6 6 8 6 6 6 7 7 7 8 7 6 6 7 6 6 5 5 5 6 7 7 5 5 4 2 3 3 2 2 1 2 3 5 7 8
1 1 2 4 5 6 8 9 7 6 6 6 5 5 6 7 6 6 7 8 8 7 6 6 5 5 6 6 6 6 5 5 4 4 4 3 3 3 2 2 5 7 7
2 2 4 6 6 7 10 10 9 5 6 6 6 6 7 9 8 5 3 2 4 5 5 4 5 4 4 5 6 7 6 4 2 4 3 3 3 3 3 3 6 6 7
3 3 5 6 6 6 9 10 8 5 5 5 6 6 6 7 8 8 4 4 4 3 3 3 2 3 4 4 5 6 6 5 2 2 3 3 3 2 2 2 4 5 6
4 4 5 6 6 5 6 8 7 3 3 5 7 7 6 6 10 11 6 5 5 4 2 3 4 6 8 8 5 5 7 6 5 3 4 3 3 2 1 1 2 4 6
5 5 6 6 6 5 4 6 7 1 2 4 6 6 9 7 8 10 6 5 6 6 7 7 4 4 3 4 6 4 4 5 6 4 6 5 4 3 2 1 1 1 2
Wind_Direction
208 225 226 208 229 237 206 214 236 236 240 249 253 256 250 248 251 252 226 194 198 205 212 217 223 229 233 234 233 232 232 233 230 225 221 221 222 222 221 221 221 221 220
212 211 204 197 222 257 272 251 267 271 264 266 269 270 261 254 250 245 240 210 209 211 214 219 224 227 230 232 231 230 229 229 225 219 218 219 219 219 220 220 220 220 218
211 207 214 201 209 227 249 267 285 292 283 281 280 277 269 255 250 248 244 237 219 218 220 223 225 226 228 230 231 229 226 223 219 215 214 215 216 217 218 219 219 218 216
210 201 207 213 209 210 223 233 241 258 272 283 286 286 284 277 266 257 247 237 233 234 221 222 225 226 227 229 230 229 224 219 216 214 213 213 214 215 215 217 218 217 214
208 207 212 214 210 221 234 254 249 252 266 273 278 274 271 266 264 263 257 250 238 231 227 216 218 222 223 227 228 227 224 219 216 214 213 214 214 214 214 216 217 216 214
207 208 213 215 217 226 227 231 249 253 261 267 278 282 286 282 270 262 260 259 253 242 237 235 213 218 220 223 224 224 223 220 216 215 215 215 216 214 213 215 216 217 215
213 207 222 210 210 221 229 231 237 250 253 258 273 280 276 273 265 251 240 239 246 250 247 237 213 204 211 220 222 222 222 220 218 216 216 215 215 214 214 215 217 217 217
214 216 217 221 214 214 220 225 221 230 252 250 254 287 289 281 277 275 247 228 240 245 257 263 239 215 211 198 215 220 222 221 220 217 216 215 215 214 215 217 218 218 218
218 218 221 224 224 221 223 219 216 219 233 244 232 236 268 277 321 306 312 311 322 319 295 300 284 243 231 211 193 212 220 221 221 221 219 217 217 216 218 220 222 221 221
226 223 220 220 222 222 226 227 220 219 227 244 255 241 248 269 281 302 314 342 348 330 317 311 316 311 277 244 189 196 212 219 223 225 226 225 222 220 222 226 230 230 228
233 229 223 222 220 224 225 227 230 221 223 235 252 270 266 261 243 254 288 314 319 308 306 311 315 326 338 348 23 107 189 216 226 234 236 236 231 226 227 230 236 239 239
235 232 226 218 218 222 219 216 216 223 224 236 253 268 271 273 280 258 277 300 302 301 302 322 334 341 0 20 42 66 118 225 231 235 241 243 238 232 232 231 236 242 246
244 227 220 215 217 216 214 213 205 217 228 231 239 253 269 271 269 265 273 296 300 295 298 61 43 25 15 33 71 67 246 233 231 232 236 241 243 242 242 242 246 249 250
270 242 224 217 216 215 212 203 212 217 221 226 240 246 266 268 276 286 295 308 313 321 5 51 104 101 49 35 66 265 254 225 224 227 233 244 252 253 253 254 256 258 256
300 287 246 227 222 216 212 202 210 222 217 214 221 228 285 306 333 331 325 332 333 332 340 39 26 72 22 21 108 286 284 200 216 223 228 238 248 259 266 268 267 264 260
2 6 5 295 241 214 200 191 219 203 174 136 128 103 58 23 13 349 355 351 348 340 331 346 6 21 15 352 15 325 314 203 220 219 222 230 244 262 276 281 280 275 269
28 29 22 8 321 242 171 157 185 125 107 90 79 77 64 52 24 9 360 359 0 0 329 335 8 15 16 353 344 325 305 249 208 210 216 226 241 259 277 286 287 283 279
38 33 31 25 355 345 73 112 116 105 98 92 84 74 57 51 35 23 360 6 353 335 334 349 7 19 17 353 340 329 332 328 291 200 208 225 245 266 282 292 294 292 287
36 22 25 39 21 33 74 82 88 90 88 84 78 70 59 47 32 9 15 11 1 360 354 25 42 34 19 1 352 349 357 344 327 190 203 227 248 272 286 298 305 305 301
42 25 27 66 76 75 82 87 88 86 86 83 77 70 61 52 31 4 31 17 10 3 20 33 39 33 18 3 5 354 358 358 4 7 351 300 259 266 281 305 319 324 320
73 58 71 76 82 84 84 97 105 101 96 93 92 90 79 73 62 44 44 25 22 23 25 26 34 30 15 7 3 346 353 344 11 21 339 350 328 312 317 330 339 346 346
89 89 90 93 85 76 67 78 92 94 86 78 75 88 99 66 62 62 62 54 46 42 30 27 30 21 14 3 348 342 347 348 352 359 342 350 357 352 355 13 10 6 9
153 124 99 93 88 70 65 66 61 84 79 67 56 43 56 53 37 20 26 60 63 57 45 42 37 13 9 355 344 342 344 345 345 337 333 341 354 5 6 26 25 29 34
159 142 122 116 109 82 61 54 45 82 86 78 65 56 69 51 24 2 7 38 48 47 29 43 23 346 353 338 337 337 337 340 340 8 353 337 342 346 356 17 32 44 57
160 152 137 130 118 100 63 49 30 80 97 89 77 52 59 56 20 12 20 29 26 13 340 296 283 289 298 305 322 351 356 359 350 3 11 343 327 315 329 9 37 60 72
167 162 149 143 139 128 89 56 24 5 123 121 111 90 67 59 36 26 25 27 19 349 334 326 305 291 317 13 19 26 9 354 351 348 0 347 341 336 333 357 18 58 81